Wind_Speed
11 11 9 8 9 7 5 4 3 2 4 3 1 0 4 6 4 7 7 2 3 4 6 11 10 8 7 9 13 14 11 8 5 4 7 11 20 23 21 22 22 20 19 18 17 17 16 16 16 15 14 15 15 15 16 17 16 14 14 15 13 11 10 9 10 11 12 13 13 10 8 7 9 12 14 14 11 11 12 14 15 14 14 10 9 11 12 11 12 13 13 15 17 17 17 17 17
11 11 8 7 8 6 3 3 3 1 4 2 2 2 4 5 5 8 6 3 4 7 9 11 11 11 10 9 12 14 14 13 13 11 13 23 24 22 24 22 22 21 20 19 17 16 16 17 16 15 14 15 16 17 17 16 14 14 14 14 12 10 9 9 10 12 13 13 12 10 8 7 10 13 14 13 11 11 13 14 15 15 13 11 9 11 11 11 13 14 14 15 16 16 16 17 17
9 9 8 7 7 5 2 3 4 2 2 1 4 2 1 4 7 7 5 6 8 11 11 12 11 7 6 10 11 13 12 13 18 16 15 24 21 21 25 22 23 22 20 19 17 17 16 17 17 16 16 16 17 16 16 15 14 14 14 13 10 9 9 10 11 12 13 13 11 9 9 9 12 13 14 13 11 11 13 14 15 15 13 10 10 11 11 11 13 14 13 15 16 16 16 16 18
6 7 9 7 4 2 2 2 2 3 1 2 4 3 1 5 11 8 5 8 11 12 11 11 9 2 5 14 13 12 12 12 18 16 13 19 20 24 26 22 23 21 20 18 17 17 17 19 18 17 17 17 16 15 15 14 13 14 14 12 10 9 10 10 11 13 14 13 10 8 9 11 13 13 14 13 12 13 13 14 15 15 12 10 11 12 12 12 13 13 13 14 15 16 16 17 18
6 8 9 5 2 1 2 2 2 2 2 2 4 4 3 6 11 11 7 10 12 12 10 10 9 7 9 12 9 9 12 13 17 17 16 20 25 27 25 23 22 21 20 18 18 18 19 21 19 17 16 16 15 14 14 13 13 14 13 11 9 9 10 11 12 13 14 13 9 8 10 11 13 13 14 14 14 13 13 14 16 15 12 10 12 13 13 13 13 13 14 14 16 16 17 17 18
8 9 9 6 2 2 3 2 1 1 2 2 4 5 7 8 10 13 11 12 11 10 10 9 11 13 11 11 10 10 12 13 14 17 20 25 27 26 25 23 21 21 20 19 18 18 20 21 19 17 16 15 14 13 13 13 13 13 12 10 9 10 11 12 12 13 14 13 10 9 11 12 12 13 14 15 14 14 13 14 15 14 12 11 13 14 14 14 14 14 14 15 16 16 17 17 18
7 6 6 6 3 4 5 1 1 1 1 2 5 7 8 9 10 13 13 13 11 10 10 9 12 13 10 10 10 12 15 14 14 18 23 27 28 26 24 22 21 21 20 19 19 19 21 20 18 16 15 14 13 13 13 12 13 13 12 10 10 10 11 12 12 13 13 12 11 10 11 12 12 14 15 15 14 14 14 15 15 14 13 12 13 14 14 14 14 15 15 16 16 16 17 17 18
7 5 3 3 3 3 4 1 1 2 5 4 6 8 9 9 8 12 13 12 10 9 11 10 11 11 11 12 11 14 17 17 18 23 26 27 27 25 23 23 22 20 20 19 20 21 21 19 18 16 15 14 13 13 13 13 13 13 11 9 10 11 10 11 12 13 13 12 11 11 11 12 13 14 15 15 14 14 14 15 15 14 14 13 13 14 14 14 15 15 16 16 16 16 17 17 17
7 5 3 2 3 3 2 1 2 3 7 7 9 8 8 8 5 9 12 11 11 10 10 10 11 11 13 15 13 13 16 19 24 26 26 26 26 24 21 24 23 20 20 20 20 20 19 18 17 16 15 14 13 12 12 13 12 12 10 9 10 10 10 12 13 13 13 12 12 12 11 12 14 15 16 15 15 15 16 16 15 15 15 14 14 14 14 15 15 15 16 16 16 16 16 17 18
4 3 4 3 3 3 1 2 3 5 7 7 10 9 7 7 5 6 8 10 12 11 10 10 13 14 14 15 11 11 17 22 26 26 26 25 25 22 21 24 23 20 20 20 20 19 18 18 17 16 14 14 12 12 12 12 11 10 9 9 10 11 11 12 13 14 13 12 12 11 12 14 14 15 16 15 15 15 16 16 16 16 16 15 15 15 15 15 15 15 16 16 16 16 16 18 18
4 3 3 4 4 2 1 3 5 5 8 8 8 9 6 6 6 5 6 9 12 12 13 12 13 15 15 13 10 13 22 24 25 26 26 24 23 22 21 23 22 19 20 21 20 19 18 18 17 16 14 13 12 11 12 11 10 9 10 10 9 11 11 12 13 13 12 12 12 12 14 15 15 15 16 16 15 15 15 16 16 17 16 16 16 16 16 16 15 16 16 17 17 16 17 17 17
5 2 1 4 5 1 2 4 6 6 8 8 7 7 6 6 7 8 8 9 12 11 10 10 12 14 15 12 9 16 24 23 24 25 25 23 22 21 20 22 22 19 20 20 20 19 18 18 17 16 14 13 12 12 11 10 10 10 12 11 9 10 11 11 13 13 12 12 12 13 14 15 15 16 16 16 16 15 16 16 17 17 17 16 17 16 16 16 16 16 16 17 16 16 16 17 17
5 3 2 4 5 3 2 5 6 7 7 7 7 5 6 5 6 8 9 10 12 12 8 9 13 13 13 13 11 15 21 22 24 24 23 22 21 21 20 21 22 21 20 19 19 19 18 18 16 15 14 14 12 12 12 10 11 12 12 12 10 10 11 11 12 13 13 13 13 14 14 14 15 16 16 16 16 15 15 15 16 17 17 17 17 17 17 17 16 16 16 16 16 17 17 18 18
4 2 3 3 4 3 1 4 5 6 5 6 6 5 4 4 6 5 7 10 7 8 9 9 13 13 13 13 11 12 17 24 24 23 23 22 20 20 20 20 22 20 19 18 18 18 17 17 16 16 16 15 14 12 11 10 12 14 13 12 11 10 11 12 12 14 14 14 14 14 14 13 14 16 16 16 15 15 15 15 16 17 18 17 17 18 17 16 16 16 15 15 16 17 18 18 18
5 2 4 3 4 2 3 2 3 4 6 7 6 6 4 3 5 3 2 7 5 8 10 9 9 9 13 14 12 13 20 26 24 23 23 22 20 19 19 20 22 19 17 18 17 17 16 15 15 16 17 16 15 12 11 11 11 13 13 12 12 11 11 13 13 14 15 14 15 15 14 13 15 16 16 16 15 15 15 15 16 17 17 17 16 17 17 16 16 15 16 17 17 18 18 18 18
5 4 3 2 1 1 3 2 1 3 7 10 8 7 6 2 4 4 1 3 7 11 9 8 5 5 13 14 16 22 26 27 24 24 23 22 21 18 18 17 21 21 18 17 16 16 15 15 16 17 17 15 15 14 12 10 11 12 13 13 13 12 11 13 14 14 15 14 15 16 15 14 14 15 15 15 14 14 15 16 16 17 17 17 16 16 16 15 15 16 18 19 18 18 18 18 17
3 4 3 2 0 3 1 2 1 4 8 9 8 7 8 5 3 5 5 6 9 12 7 9 8 7 13 17 23 29 28 27 24 24 23 22 20 17 17 15 17 21 20 17 16 16 17 16 17 19 18 15 15 16 14 12 11 11 13 15 15 13 12 12 14 14 14 14 15 15 15 15 13 13 14 14 14 14 15 15 16 17 17 16 16 16 15 15 15 17 19 20 19 19 18 17 17
3 2 2 3 2 5 2 2 3 5 8 9 7 6 8 8 5 6 7 6 10 10 7 9 9 10 17 23 29 29 28 27 25 25 23 20 19 17 16 15 15 18 20 19 17 17 17 15 16 19 18 17 16 15 15 14 13 11 10 13 15 14 13 12 13 13 13 14 15 13 13 14 11 11 13 13 14 15 15 15 16 16 17 16 16 17 17 17 17 18 19 18 18 18 16 14 15
4 1 1 1 4 8 9 5 2 4 8 10 7 6 7 9 6 5 6 8 10 10 10 9 12 17 22 27 29 28 27 27 25 24 22 20 19 18 17 16 14 14 16 17 18 16 15 13 13 16 16 16 16 15 16 16 15 13 10 12 15 16 15 14 12 12 12 13 14 12 12 13 12 12 13 13 15 15 14 15 16 17 18 18 17 17 17 16 17 16 15 15 15 14 11 10 10
3 1 1 1 3 5 11 10 5 5 8 11 8 6 7 7 4 2 6 10 9 9 10 11 15 20 22 24 26 28 27 25 25 23 21 19 18 18 17 16 15 14 14 13 14 13 13 13 12 14 14 14 15 14 15 16 16 15 12 11 12 14 17 16 14 13 13 13 14 13 13 14 13 14 14 14 14 14 15 16 17 18 19 19 17 16 14 13 13 13 12 12 10 8 8 8 8
1 1 2 2 1 3 8 11 10 7 7 10 9 7 7 7 5 4 7 8 6 7 8 12 16 21 23 23 24 25 25 24 24 22 21 19 18 17 16 16 15 14 14 13 12 12 13 13 13 13 13 13 13 12 14 14 14 16 16 14 11 13 15 15 14 13 14 15 14 14 15 15 14 14 14 12 12 14 15 14 15 17 16 15 15 13 11 11 11 11 11 9 6 7 8 8 8
4 6 6 1 1 2 4 7 13 9 10 11 10 9 6 8 8 6 8 6 5 6 7 12 16 19 22 22 23 23 22 22 22 22 20 19 18 16 16 16 15 15 14 13 12 13 13 13 13 13 12 11 11 12 13 13 14 15 16 17 16 17 16 15 16 12 11 14 14 14 14 13 13 12 11 11 11 13 13 12 12 13 11 11 12 11 9 9 9 9 11 9 7 8 8 8 8
3 4 5 1 2 3 2 2 11 8 9 9 8 9 7 9 10 6 7 5 5 5 5 13 17 19 22 22 22 21 21 19 20 21 19 19 18 17 17 16 16 15 13 13 13 13 13 12 13 12 12 11 9 10 10 10 11 11 12 14 15 16 17 17 18 15 12 12 12 12 13 13 12 11 11 11 10 10 11 12 12 12 11 9 11 10 10 10 7 7 8 9 8 8 8 8 8
4 4 3 1 1 2 1 1 5 7 7 7 7 11 8 7 9 8 7 5 5 6 7 14 19 20 22 20 20 20 20 19 20 21 19 18 18 17 17 15 15 14 13 13 13 13 13 13 13 12 12 11 10 9 8 7 7 8 9 9 9 10 13 13 16 18 17 14 10 10 11 12 12 10 10 10 10 9 10 13 14 13 10 9 10 10 12 11 8 8 9 8 8 7 8 8 8
7 6 2 1 2 1 0 2 3 8 8 7 9 11 8 7 8 9 8 8 9 10 11 16 19 20 20 19 19 19 18 19 20 21 19 17 17 17 16 15 15 14 14 14 13 14 13 13 13 12 12 11 10 9 8 8 7 8 7 7 8 8 8 10 13 16 17 16 11 8 9 10 10 9 10 9 9 9 8 10 12 11 9 8 8 9 11 11 9 9 9 8 7 7 8 7 7
7 7 3 2 4 2 1 1 4 7 8 10 12 11 9 10 9 8 8 11 13 15 15 17 19 19 19 18 19 19 18 18 20 20 19 17 17 17 16 15 15 15 15 14 14 13 13 14 13 12 12 11 10 9 8 8 8 8 7 7 7 7 8 8 10 11 14 16 11 8 7 7 9 9 9 9 9 9 8 8 9 8 9 9 8 8 9 9 9 9 8 7 7 7 7 6 6
5 7 5 5 5 2 1 2 6 7 7 11 13 13 12 11 8 6 8 12 14 16 17 17 18 18 18 18 17 17 17 19 20 19 18 17 17 16 16 15 15 15 15 15 14 13 13 14 13 12 12 11 10 9 8 8 8 9 8 8 7 7 8 7 8 9 10 13 11 9 7 5 8 9 9 10 9 9 8 8 7 7 8 8 8 8 8 8 8 8 7 7 6 6 6 5 5
4 7 6 8 6 2 2 4 7 7 6 8 9 13 13 10 8 6 9 13 15 17 17 17 17 16 16 17 17 15 15 18 20 18 17 17 16 16 15 15 15 15 15 15 14 13 13 13 13 13 12 11 10 9 9 8 8 9 9 8 7 8 8 7 9 9 10 11 11 9 6 6 8 9 9 9 9 8 8 7 7 7 7 7 7 8 7 7 8 7 7 6 5 5 5 5 5
5 8 8 8 7 5 5 6 6 6 6 5 5 10 9 7 7 8 10 12 15 16 16 16 15 15 16 16 15 13 14 17 18 17 17 17 16 16 16 15 15 15 14 14 14 13 13 13 13 13 12 11 10 9 9 8 8 9 8 8 8 8 8 8 9 9 10 10 10 8 7 7 8 8 8 8 8 8 7 7 7 7 7 7 7 7 6 6 8 8 7 5 4 5 5 5 5
7 9 8 6 7 6 5 6 6 3 5 5 5 5 6 6 6 9 11 11 14 14 15 14 13 14 14 15 14 13 15 16 17 17 18 17 17 17 16 16 15 15 14 14 14 14 13 13 13 12 12 12 10 9 9 9 8 8 8 8 8 8 8 9 9 9 10 10 9 9 8 8 8 8 7 6 6 7 7 6 7 7 7 7 6 6 5 6 6 5 6 6 5 5 5 4 5
8 10 8 7 6 4 5 7 7 4 2 5 6 3 4 6 4 8 12 13 14 13 14 15 13 13 14 14 14 14 15 16 18 19 19 18 17 17 17 17 16 15 15 15 15 14 13 13 12 12 13 12 11 10 9 9 8 8 8 9 9 8 8 9 9 10 10 10 10 9 9 8 8 8 6 5 6 7 7 6 6 7 6 6 6 5 5 6 5 3 4 5 4 5 5 4 4
9 9 7 8 6 4 7 8 9 7 2 2 3 2 6 7 6 9 12 15 16 12 11 14 14 14 14 14 14 14 15 17 19 19 19 19 18 17 17 17 17 15 15 15 15 15 14 13 12 13 13 12 12 10 10 9 8 8 8 9 9 8 8 8 9 10 10 10 10 9 9 8 8 8 6 5 5 5 6 7 6 7 5 5 6 5 4 5 5 4 3 4 4 4 4 4 4
9 8 7 8 7 5 7 8 10 9 5 1 2 0 5 4 6 9 11 11 13 12 11 13 13 14 14 13 13 13 14 16 17 19 20 19 18 17 17 18 17 16 15 15 16 15 14 14 12 13 14 13 12 11 10 10 9 8 8 9 9 8 8 8 9 10 10 9 10 10 9 8 8 8 7 5 4 5 6 6 7 7 5 5 6 4 5 5 5 5 3 4 4 2 3 4 4
8 8 8 8 9 7 4 7 12 12 6 5 4 3 3 3 3 7 8 6 7 11 14 12 12 13 13 13 13 13 14 15 15 18 20 19 18 18 18 18 17 16 15 16 16 15 14 14 12 13 14 13 13 12 10 10 9 8 8 9 9 8 8 8 9 9 10 9 9 10 9 8 8 8 7 5 4 5 6 6 7 6 5 5 4 3 4 4 5 5 3 3 3 0 2 3 3
9 9 8 8 10 11 7 6 10 14 9 6 5 4 4 5 5 6 7 8 11 12 14 13 12 12 12 12 13 14 15 15 15 18 21 20 19 18 18 18 17 16 16 16 16 15 14 14 12 13 14 14 13 12 11 10 10 9 9 9 9 8 7 8 9 9 10 10 10 11 9 8 8 7 7 6 4 5 6 5 6 5 5 4 4 4 5 4 4 4 3 3 2 1 2 2 2
11 12 10 9 11 10 9 6 7 11 10 8 8 6 5 5 9 9 9 11 13 12 13 12 10 11 11 11 12 14 15 14 16 20 22 21 20 19 18 18 18 16 16 16 16 15 15 15 14 13 13 14 13 12 12 11 11 10 9 10 10 8 8 8 8 9 9 10 11 11 9 8 8 7 7 6 4 4 5 6 5 5 5 4 3 3 4 5 4 2 3 2 2 2 2 2 2
10 10 12 11 13 8 8 9 7 7 6 8 12 12 9 9 10 11 10 10 9 8 10 12 13 11 10 10 12 14 15 14 18 21 22 21 21 20 19 18 18 17 16 17 17 16 16 16 15 15 14 14 14 13 12 12 11 11 10 10 11 10 9 8 8 9 9 10 11 11 9 8 8 7 7 6 4 4 4 5 5 4 5 4 2 3 4 4 4 2 2 1 1 2 2 2 2
11 11 10 11 14 6 9 10 8 7 5 5 10 15 14 13 10 9 10 10 8 6 8 12 15 13 11 13 15 14 13 13 17 20 21 22 21 21 20 19 19 19 18 18 18 17 16 16 16 15 15 14 14 13 13 12 11 11 11 10 10 11 10 9 9 8 9 11 11 10 9 8 8 7 7 6 5 5 4 5 5 4 5 4 3 4 4 3 3 2 2 1 1 1 1 2 2
11 9 7 11 10 4 8 8 8 7 5 5 7 10 13 15 14 13 13 11 9 10 10 9 10 11 11 13 13 13 13 13 15 18 20 22 22 22 20 19 20 19 19 19 18 18 17 16 16 15 15 15 14 14 13 12 11 11 10 9 9 10 10 9 8 8 9 10 11 10 9 9 8 7 7 7 6 5 5 5 5 5 5 5 4 4 4 3 3 2 1 1 1 1 1 2 2
11 7 6 10 11 8 4 7 10 8 6 6 6 6 9 14 14 14 14 12 11 12 11 9 8 7 7 9 10 12 14 14 15 17 19 21 22 22 21 20 20 20 19 20 19 19 18 17 17 16 16 15 14 14 14 12 12 11 8 7 7 8 9 9 8 8 8 9 11 10 9 9 8 7 7 7 6 5 5 5 5 5 5 5 4 4 4 3 3 2 1 1 1 1 3 2 2
11 10 10 9 13 14 2 3 9 9 7 5 5 6 6 12 13 12 12 13 13 13 12 11 8 4 1 6 9 11 12 13 15 17 18 20 22 22 21 21 21 21 20 20 21 20 19 18 19 18 17 16 15 15 14 13 13 11 9 7 6 7 8 9 8 9 9 8 10 10 9 9 8 8 7 7 6 6 5 5 4 5 5 4 4 3 3 3 3 2 2 1 0 1 1 1 2
10 13 15 11 14 14 6 4 5 6 7 8 8 7 4 10 12 13 14 12 11 13 14 13 11 8 3 6 9 10 11 11 13 16 17 19 22 22 22 22 22 22 21 21 21 20 19 19 20 19 17 17 16 16 16 14 14 13 11 10 9 8 8 9 9 9 10 9 9 10 10 9 9 8 7 7 6 6 5 5 4 4 4 4 3 2 2 2 3 2 2 1 1 2 2 2 1
8 11 15 13 11 11 10 9 7 6 6 9 11 7 3 8 7 9 11 10 9 11 13 15 12 10 8 8 9 10 9 8 10 15 17 17 21 22 22 23 23 22 22 21 21 21 20 21 21 20 18 17 17 18 17 15 15 14 13 12 11 10 9 9 9 8 9 8 7 9 9 9 9 8 8 7 6 6 5 5 5 4 4 4 3 2 2 2 3 3 2 2 2 2 1 2 0
8 9 16 13 7 8 9 8 7 9 4 7 10 8 5 6 6 7 6 7 7 8 11 15 14 12 11 11 11 11 6 3 7 13 14 15 20 22 22 23 23 22 23 22 22 22 21 21 22 21 19 18 18 19 19 17 15 15 14 12 11 10 9 9 9 8 8 8 7 8 8 9 9 7 7 8 7 6 6 5 5 4 3 4 3 3 2 1 3 3 2 2 2 2 1 1 1
5 2 9 13 9 9 7 6 8 9 8 6 10 9 7 5 6 6 5 6 6 6 8 11 14 14 12 11 12 12 7 4 10 12 13 15 19 21 22 23 23 23 23 23 22 22 22 22 23 22 20 19 19 20 20 18 16 15 14 13 11 10 9 9 9 8 8 8 7 7 7 8 9 8 6 7 7 7 6 6 5 5 4 4 4 3 3 2 3 3 2 2 2 2 2 1 1
3 6 3 8 9 11 9 9 9 8 11 9 8 10 8 2 5 7 5 5 6 6 6 7 10 13 14 14 13 11 10 10 13 12 13 15 18 21 22 22 23 22 22 23 22 22 23 23 23 23 21 20 20 21 21 19 18 16 15 14 13 11 10 9 9 9 8 7 7 8 7 7 9 9 7 7 7 7 7 6 6 5 5 4 4 2 2 3 3 3 2 2 2 1 1 0 1
9 5 4 8 7 9 9 8 8 8 11 11 9 12 11 2 2 6 4 3 3 3 5 4 5 8 12 15 14 13 12 13 14 12 13 17 19 20 20 22 23 23 22 23 23 22 23 23 24 24 22 21 21 22 21 20 19 17 16 15 14 13 11 10 10 10 9 9 8 9 8 8 8 9 9 8 8 8 7 7 6 5 5 4 3 2 2 3 3 4 4 2 2 1 1 1 2
13 4 5 9 7 6 7 7 8 9 10 11 12 15 14 8 4 5 5 4 2 1 3 3 2 3 5 9 13 15 15 15 14 13 13 16 18 17 18 20 22 22 23 23 23 23 23 23 24 24 23 22 22 22 22 21 20 19 17 16 15 14 13 12 11 11 11 10 10 9 9 9 8 8 9 9 9 9 8 7 6 5 5 4 4 3 3 3 3 4 4 3 3 2 2 2 2
10 7 7 9 8 7 8 8 8 8 9 10 13 17 13 5 5 7 7 5 4 3 4 4 3 3 1 6 10 11 12 14 13 13 12 12 14 17 19 21 22 23 24 25 24 24 24 23 25 25 24 23 22 23 22 21 21 20 19 17 16 15 14 13 12 12 12 11 10 10 10 10 9 9 9 9 9 9 9 8 7 6 5 5 4 3 2 2 2 2 4 3 3 3 3 3 3
10 9 9 8 7 8 9 9 8 8 9 9 13 16 9 6 7 7 8 7 5 5 6 5 5 4 1 5 10 10 10 11 11 12 12 11 13 16 19 20 20 20 23 25 25 24 24 24 25 26 25 24 23 23 23 22 21 20 19 18 17 16 15 14 14 13 12 11 11 11 11 11 10 10 10 9 9 9 9 9 8 7 6 5 5 4 3 3 3 3 3 3 4 4 3 4 3
12 9 10 9 7 7 7 8 8 8 9 10 13 14 8 7 7 7 8 8 7 6 7 7 6 5 4 5 9 12 13 12 11 12 12 12 15 17 17 16 16 18 22 25 25 24 24 25 26 27 26 25 24 23 23 23 22 20 20 19 18 17 16 15 14 13 13 13 12 12 11 11 10 10 10 9 9 9 9 9 9 8 7 6 6 5 5 5 5 5 4 4 4 4 4 4 4
10 10 10 9 8 8 6 7 9 9 8 10 10 5 3 6 10 10 9 8 8 8 8 9 9 8 8 8 6 8 11 11 11 12 13 14 16 17 17 18 19 21 24 25 24 23 24 24 25 26 26 26 25 24 23 23 22 21 21 20 19 18 16 16 15 14 14 14 13 13 12 11 10 10 10 10 10 10 9 9 9 9 8 7 7 7 7 6 6 6 5 5 5 5 5 5 5
6 10 10 9 10 9 7 9 10 10 10 9 9 5 6 7 8 9 9 10 10 9 9 10 10 10 10 9 5 5 7 8 9 10 10 13 16 16 15 15 17 22 25 22 21 21 21 22 23 24 25 25 26 25 24 23 22 21 21 21 20 19 18 17 16 16 15 14 14 14 13 12 12 11 10 10 11 11 10 10 10 9 9 9 8 8 8 7 7 7 7 6 6 6 5 5 6
5 8 9 10 11 8 7 7 9 11 10 8 12 12 9 8 6 6 9 10 10 10 10 10 11 11 10 9 7 6 5 5 7 8 8 9 12 13 12 12 14 18 22 22 21 20 19 19 20 21 23 23 24 25 24 23 23 22 22 22 22 21 20 19 18 17 16 16 15 14 14 14 13 13 11 11 11 11 11 11 10 10 10 10 10 9 9 9 8 8 7 7 7 7 6 6 6
9 5 5 8 9 7 6 6 7 11 10 8 14 16 11 8 7 8 8 8 10 10 10 11 11 11 10 9 8 7 6 3 3 5 6 4 3 5 8 10 15 17 19 22 22 21 20 19 21 22 22 22 22 23 23 24 23 22 22 22 23 22 21 20 19 18 17 17 16 16 15 15 14 14 13 12 12 12 12 12 12 11 11 11 11 10 10 10 9 9 8 8 8 8 7 7 7
11 7 7 8 6 7 8 6 6 8 9 9 13 14 8 5 7 8 7 6 7 8 9 10 11 11 10 10 9 8 7 5 3 3 6 8 7 9 13 16 18 22 18 18 19 18 18 19 22 25 25 24 25 24 23 24 24 22 22 22 23 23 22 20 20 19 18 18 18 17 16 16 15 15 14 14 14 13 13 14 13 13 12 11 11 11 11 11 11 10 9 9 8 8 9 9 8
10 8 8 8 6 7 9 9 8 7 9 9 10 9 6 6 6 7 7 4 4 6 7 8 10 11 11 11 11 10 8 8 7 8 5 10 14 17 19 20 20 21 17 15 16 17 18 19 22 24 26 26 26 26 25 24 24 23 22 22 23 23 22 21 20 20 20 19 18 18 17 17 16 16 15 15 16 15 15 15 14 14 13 13 13 12 12 12 12 11 11 10 9 9 9 9 9
4 7 9 10 9 8 9 10 10 9 9 9 8 7 6 6 4 6 6 4 4 5 5 7 9 10 11 11 12 10 10 10 9 10 8 4 8 13 15 18 20 18 15 12 10 12 18 21 19 19 25 27 25 26 26 24 23 23 22 22 22 22 22 22 21 21 21 20 19 19 18 18 17 17 17 17 17 17 16 16 15 15 15 14 14 14 13 12 12 12 12 11 10 10 10 10 10
Wind_Direction
168 164 182 210 212 212 204 216 257 227 239 245 210 141 111 132 131 106 111 178 136 106 100 97 89 79 89 91 89 75 53 56 50 83 106 128 138 141 141 136 136 132 128 127 125 123 121 121 118 116 117 116 118 119 117 114 114 110 105 105 105 105 103 95 91 90 88 86 86 89 92 90 86 82 84 90 99 98 84 78 82 83 90 94 90 88 87 92 96 97 97 97 96 95 97 98 100
177 189 199 206 206 223 237 212 250 242 231 237 100 70 95 125 120 100 114 147 124 125 108 99 86 72 80 98 95 77 61 62 80 86 104 130 135 134 137 138 135 132 130 128 127 123 121 123 119 117 117 117 116 115 114 113 113 108 105 106 109 108 99 95 96 94 90 91 95 100 100 95 85 82 86 91 94 93 85 79 80 81 87 94 92 89 89 91 93 94 95 94 93 92 94 98 100
189 196 193 201 212 224 280 239 240 252 225 156 79 61 108 125 113 107 148 161 134 122 106 99 86 65 76 88 80 78 80 79 95 101 114 131 132 134 138 138 136 133 131 130 129 126 126 127 121 119 119 118 116 114 113 112 111 107 106 109 113 107 98 98 99 97 93 93 99 108 109 99 87 84 89 92 90 86 83 80 80 81 85 98 100 92 90 91 92 94 95 97 95 93 92 94 96
220 202 200 211 220 214 248 231 251 284 284 105 95 63 73 124 119 129 179 152 128 117 106 101 94 95 83 84 86 85 95 96 104 111 122 131 132 138 139 137 136 132 131 132 130 127 131 130 124 123 122 120 117 117 115 113 110 105 107 113 113 106 104 102 99 98 95 95 99 105 100 93 89 87 88 89 84 80 81 82 83 83 85 93 96 92 89 89 93 98 98 98 98 96 94 93 93
222 210 216 222 234 267 250 264 299 303 349 41 96 90 130 129 122 133 150 134 126 119 112 111 106 110 83 76 91 95 105 110 112 116 121 129 133 138 138 137 136 132 132 131 128 127 131 128 125 126 125 123 120 120 117 113 109 107 114 118 114 111 110 103 99 96 95 100 104 101 93 88 88 88 88 87 85 82 81 82 84 86 86 86 91 93 90 91 94 98 100 100 99 97 95 95 95
212 211 217 221 255 269 247 267 320 349 357 19 106 121 140 131 127 133 134 129 124 117 115 116 110 105 83 70 77 94 114 117 117 120 123 131 136 137 136 137 135 132 131 129 126 126 131 127 125 128 126 126 124 122 117 113 111 115 122 121 118 115 109 103 100 97 98 103 105 100 91 89 88 89 88 87 89 85 80 81 84 89 90 88 90 94 94 95 95 96 98 101 101 97 96 97 97
217 219 214 221 255 252 252 272 135 176 114 100 126 135 132 131 137 134 135 134 128 125 120 114 113 107 93 88 84 92 108 115 120 123 127 133 137 137 138 137 131 130 129 128 125 127 131 126 126 129 128 130 129 125 120 116 116 120 123 122 119 112 106 103 101 100 102 106 107 100 92 94 91 87 86 85 87 85 82 84 87 91 93 92 93 95 96 96 96 98 99 101 101 98 96 97 96
230 244 236 243 267 244 256 315 176 155 117 128 127 134 135 134 146 142 143 140 132 124 113 112 110 96 95 104 99 100 106 111 119 123 129 134 137 140 141 134 127 127 128 128 127 131 130 126 131 133 133 133 131 128 120 118 119 122 123 122 118 111 108 104 102 101 104 109 109 101 94 97 94 88 87 86 86 85 84 85 88 92 95 95 96 96 96 98 98 100 100 100 99 97 96 95 96
234 241 253 265 278 274 266 152 160 93 106 131 121 131 138 131 168 157 142 135 129 118 109 115 110 100 103 105 100 103 108 114 121 124 130 135 139 142 141 132 128 130 130 130 130 133 131 132 137 135 136 134 130 126 119 120 121 123 124 124 120 114 110 105 103 102 105 108 108 104 99 96 95 92 91 87 83 83 83 85 89 94 97 96 96 96 97 99 99 101 101 98 97 97 98 99 99
235 229 265 282 268 269 238 144 134 98 103 113 113 135 138 131 180 160 133 136 137 131 123 116 112 113 112 107 103 108 117 124 126 127 132 136 140 142 140 131 130 133 132 132 132 133 133 134 136 135 136 131 127 122 119 123 123 126 126 123 119 115 111 107 105 103 107 111 111 109 104 98 96 95 93 89 84 85 86 86 91 96 97 96 95 96 97 98 100 101 100 99 98 97 100 103 102
250 225 275 293 279 267 196 129 117 106 107 103 108 128 131 140 164 156 137 139 144 139 129 122 118 113 108 105 103 116 125 131 131 130 134 136 140 141 140 131 130 135 135 135 132 131 131 132 133 134 133 129 127 123 124 126 124 129 128 120 114 116 112 108 107 106 110 113 113 111 108 103 99 93 94 95 91 90 91 90 92 97 99 97 96 95 97 99 101 102 101 101 98 98 102 103 102
262 281 349 288 293 311 169 128 115 114 112 112 118 121 123 155 169 154 143 146 152 140 117 120 128 117 112 109 110 127 131 133 133 133 135 136 139 140 139 135 133 133 135 135 132 131 132 133 133 133 133 130 130 128 129 131 128 128 128 121 116 117 111 108 110 112 112 111 110 109 108 106 102 98 95 96 94 93 94 94 94 96 98 98 97 96 97 99 101 102 101 100 100 102 102 102 103
266 307 315 274 308 331 136 116 116 121 116 118 130 125 119 162 174 150 153 159 148 132 115 123 133 125 116 115 122 135 134 135 135 136 137 136 138 138 139 136 132 131 133 134 132 133 135 136 136 136 136 131 133 138 139 137 131 128 127 124 123 120 113 111 112 114 116 113 113 110 106 104 104 103 98 95 94 95 94 96 97 97 98 98 99 98 98 99 101 102 102 103 105 105 102 103 104
265 295 277 285 335 330 76 113 136 127 120 118 129 132 129 189 164 154 172 147 127 134 137 130 128 119 117 123 133 140 137 138 139 139 138 136 137 137 139 134 129 131 131 132 133 135 138 139 138 140 139 136 139 141 139 140 137 133 131 128 128 127 119 117 115 116 118 117 118 115 110 107 105 103 101 99 96 97 98 99 100 99 98 99 100 100 99 99 100 104 106 106 105 104 103 104 105
256 269 266 324 355 336 13 74 146 130 128 131 143 142 139 230 148 136 183 123 138 155 127 115 121 126 136 139 141 144 141 141 142 141 138 136 136 136 138 135 131 132 131 133 137 137 141 141 139 140 139 140 140 134 134 141 140 133 129 127 128 130 125 122 121 122 123 122 122 119 116 113 107 104 103 103 101 100 101 101 99 99 98 98 100 100 102 102 104 107 104 102 102 103 104 103 103
260 278 284 340 38 83 13 13 172 144 122 132 151 149 139 196 135 119 218 166 154 132 103 108 127 149 145 141 140 141 142 142 142 141 139 136 136 135 137 137 134 133 133 136 140 141 143 142 143 144 139 136 133 130 135 141 136 132 128 126 132 134 129 127 126 127 126 125 125 122 119 115 109 105 105 107 105 102 101 101 98 96 96 97 99 101 103 105 107 106 103 103 104 104 104 104 104
264 281 300 303 72 87 6 337 152 133 115 130 147 152 143 141 126 139 196 208 144 120 115 139 156 169 140 134 137 139 141 143 144 143 141 140 140 140 139 141 138 136 137 139 141 144 146 146 145 145 141 136 132 130 135 136 131 135 133 132 139 138 133 133 129 127 123 122 125 125 122 119 113 110 111 113 109 102 101 99 96 95 96 98 97 100 103 107 109 107 106 105 105 105 102 102 101
258 305 324 286 6 73 117 19 59 130 134 138 144 168 149 133 150 171 180 165 133 130 136 143 149 141 127 131 136 139 143 145 148 147 145 146 146 146 145 147 148 142 141 143 145 146 148 149 144 139 138 137 134 132 136 134 128 131 134 135 140 138 137 137 133 131 125 124 125 123 124 122 119 116 114 116 111 105 103 99 97 97 99 101 99 98 100 106 111 110 108 105 100 96 95 97 95
230 258 285 271 26 72 116 124 107 147 146 136 148 190 154 133 156 172 152 138 143 138 131 133 128 124 126 134 138 141 145 148 151 150 148 151 150 150 149 149 152 149 145 146 148 147 145 143 140 136 136 136 135 136 138 137 137 138 137 138 140 136 134 133 131 132 131 130 127 123 123 119 117 117 116 117 113 110 106 100 99 99 100 100 100 99 98 102 108 110 107 101 93 89 96 103 102
223 186 269 41 41 58 100 117 125 139 146 138 156 176 132 132 153 125 129 144 153 138 134 138 129 131 135 137 141 145 148 151 153 152 152 152 152 152 150 150 153 152 148 145 145 144 141 139 136 135 137 137 133 136 139 142 145 144 142 140 139 136 134 135 132 130 134 132 127 125 121 116 116 117 118 117 116 117 111 103 102 104 103 101 100 99 98 99 103 106 102 99 97 101 111 108 106
259 197 258 23 12 9 77 108 120 144 161 149 161 145 125 153 161 143 146 150 145 135 142 144 138 138 140 142 146 148 151 153 155 155 154 153 154 154 151 152 151 152 150 144 144 143 142 140 137 138 140 138 136 140 141 146 149 142 144 144 140 139 134 133 131 132 139 134 126 126 119 115 117 120 123 122 125 129 121 113 108 109 112 108 105 104 102 100 97 97 97 102 114 114 110 103 102
219 200 212 289 317 28 49 102 113 145 174 167 168 139 148 170 148 148 153 153 152 154 157 148 144 142 144 147 148 151 153 155 158 157 156 154 155 155 153 152 150 153 150 144 147 145 145 143 139 141 141 139 141 143 139 146 152 142 145 153 154 153 145 137 131 124 131 130 127 131 125 115 116 122 129 130 133 133 129 125 119 119 123 119 114 113 117 117 109 103 97 96 102 99 95 96 98
224 208 204 205 342 59 10 68 107 145 165 160 151 130 170 163 135 151 152 152 174 193 191 152 145 146 147 149 150 153 154 157 160 157 158 156 156 158 154 153 152 152 147 146 150 147 149 146 141 144 143 141 141 139 136 144 152 140 141 156 159 152 149 147 137 127 128 134 137 139 135 124 118 122 129 132 133 136 140 139 135 128 123 120 122 120 122 127 121 107 101 93 96 100 98 99 96
217 247 234 96 355 55 354 343 120 137 129 132 136 143 172 149 134 158 150 137 160 201 204 154 145 148 147 151 155 153 155 160 159 158 159 158 158 157 154 153 151 147 146 151 153 149 151 148 144 145 143 143 140 137 138 136 136 128 131 144 141 132 136 136 131 133 139 144 149 146 145 138 126 124 129 131 131 132 140 141 139 131 127 136 141 132 121 122 113 98 102 103 103 105 103 105 103
221 238 251 99 288 335 342 312 133 127 124 145 155 153 151 140 140 140 139 138 152 179 177 149 144 149 148 154 156 152 158 159 158 161 159 159 157 152 153 152 148 148 151 155 154 150 151 150 148 147 145 145 142 141 138 132 129 126 126 127 124 122 121 119 123 135 139 137 142 146 148 144 133 130 132 131 128 122 121 124 127 125 125 131 130 122 115 116 110 99 102 105 104 104 104 106 108
236 246 273 287 290 344 349 272 156 133 136 162 160 150 150 162 151 136 157 150 147 159 152 144 148 151 151 156 157 155 160 159 161 162 157 158 154 152 155 151 151 153 154 156 152 150 152 152 151 148 146 145 144 141 135 133 131 127 126 123 123 120 115 120 124 129 130 127 131 131 128 133 130 128 126 123 120 114 108 104 109 113 111 111 108 105 103 103 105 102 100 101 100 101 103 104 107
248 253 277 276 277 330 317 181 155 135 147 176 161 150 164 169 149 146 168 149 143 147 142 147 152 153 155 156 156 159 162 161 163 161 157 158 154 157 157 152 155 155 155 155 150 152 155 155 153 148 147 146 145 140 135 135 131 127 127 126 126 123 121 125 120 116 119 118 120 121 114 117 122 119 117 117 114 108 106 102 101 101 99 101 100 96 95 94 99 98 93 94 97 96 100 104 109
260 258 265 249 240 210 196 155 152 144 159 191 159 147 157 145 132 138 150 151 148 145 144 150 155 155 157 156 154 160 164 162 162 162 161 160 157 161 159 156 156 155 158 155 149 153 158 157 152 149 149 147 148 141 136 137 133 130 128 128 127 126 127 124 116 114 113 112 115 118 109 100 109 113 112 112 111 106 104 103 100 96 94 95 92 94 99 98 96 96 92 92 100 99 102 110 113
252 252 255 234 210 192 173 149 165 167 159 189 161 150 150 135 150 157 159 160 145 144 148 150 157 157 158 157 156 162 165 163 163 165 165 161 161 164 162 161 157 156 159 153 151 158 158 155 150 151 151 148 149 143 138 139 136 133 130 130 130 131 131 124 118 116 115 116 116 116 111 103 107 112 111 107 108 108 104 103 104 100 97 96 97 103 110 108 105 106 103 101 109 108 110 116 113
242 243 252 242 205 182 154 151 168 154 140 163 147 148 160 149 168 173 170 152 135 151 154 150 161 159 160 160 158 165 165 166 168 168 168 163 165 167 164 163 160 156 157 154 156 161 157 153 152 153 152 152 151 144 140 139 139 138 134 132 134 135 133 126 123 121 121 122 119 119 118 113 113 114 110 106 110 115 109 104 107 106 101 102 110 114 112 110 110 113 112 112 121 116 107 106 107
236 238 233 242 229 172 165 175 147 100 124 170 155 157 146 138 184 199 178 151 143 163 158 155 164 160 164 164 162 167 165 170 172 170 170 166 169 171 166 165 164 158 157 158 158 159 156 153 156 154 154 156 151 145 142 141 141 139 134 135 139 138 135 133 130 128 127 128 126 125 124 121 119 117 110 108 119 125 120 115 111 111 112 110 116 121 116 111 107 106 113 115 114 109 105 102 101
224 236 224 229 233 165 185 183 132 121 154 231 229 202 110 129 194 201 183 163 153 162 162 161 164 162 166 166 167 168 165 172 173 172 172 169 172 172 168 168 166 160 160 161 157 157 156 155 160 155 155 157 149 148 145 141 141 138 137 138 141 140 137 137 135 134 131 132 132 131 131 129 125 122 119 117 127 127 121 125 121 119 124 119 123 138 133 122 119 116 102 93 90 97 110 108 100
209 225 230 226 222 184 186 170 132 130 145 126 286 234 99 134 194 190 189 174 153 156 163 166 166 166 169 168 171 169 166 172 174 174 172 170 173 172 170 169 167 161 161 161 158 160 157 158 166 157 154 156 149 150 147 143 142 141 144 142 143 143 142 141 138 136 134 135 135 135 137 136 132 133 131 123 128 129 123 129 128 127 134 129 131 137 128 125 125 117 86 89 100 105 110 106 106
200 207 229 228 222 212 184 159 139 134 157 168 139 122 105 124 200 210 200 179 173 167 157 167 173 167 171 172 172 170 168 171 175 174 172 171 173 172 169 168 167 163 163 163 160 162 158 159 167 157 153 155 151 151 150 148 146 147 150 146 144 147 149 146 142 140 138 138 136 138 141 139 139 141 140 130 123 127 126 126 128 132 135 132 140 137 124 119 113 112 102 104 115 103 93 104 115
206 200 219 230 224 215 196 182 158 151 164 167 154 148 117 126 171 226 225 196 197 179 155 164 172 168 176 179 175 173 171 172 173 174 173 172 172 172 167 167 168 166 166 164 161 163 158 159 164 156 156 156 152 153 154 152 150 154 157 150 148 153 154 148 146 146 143 141 140 142 143 144 146 147 147 142 126 129 130 129 132 139 138 142 174 161 131 116 103 106 111 114 128 117 93 106 108
223 208 205 226 232 216 189 171 167 172 170 165 178 161 129 164 176 193 223 220 204 176 157 156 161 173 178 181 183 174 172 173 171 174 175 172 172 170 166 168 170 167 167 162 161 165 160 159 162 160 161 157 152 155 158 161 158 160 164 157 155 158 156 153 154 152 147 144 144 146 146 149 153 151 152 150 141 140 137 138 139 141 142 148 174 149 122 117 107 98 108 118 149 140 131 139 116
270 237 199 218 239 218 162 152 165 197 200 181 169 149 163 197 179 179 198 215 211 171 162 160 160 173 174 186 190 176 175 173 170 174 175 172 171 170 167 169 171 167 166 163 163 168 164 163 164 164 164 158 158 161 164 168 163 163 169 166 163 161 159 160 161 158 151 144 144 150 150 153 158 157 157 154 150 146 133 137 142 144 146 146 125 99 102 110 112 128 135 135 155 135 147 145 110
285 260 202 212 239 209 140 149 164 191 219 217 166 150 173 184 161 180 188 188 195 179 189 182 165 161 169 192 186 173 177 171 170 173 173 174 172 171 169 169 173 170 167 168 168 169 167 166 167 167 165 163 165 166 167 170 167 168 170 170 166 160 161 166 166 163 152 145 147 153 153 158 162 161 164 160 158 159 147 144 150 150 145 140 122 110 118 121 126 151 154 169 149 128 147 110 100
253 253 207 210 228 170 125 149 169 183 196 218 196 166 173 173 162 177 183 179 186 188 190 183 171 164 173 190 174 166 178 172 173 175 174 177 173 171 172 171 175 173 170 172 171 170 170 169 169 170 169 167 170 169 169 169 169 171 168 171 168 159 164 166 163 163 155 151 155 158 158 162 165 166 169 165 164 164 158 154 157 156 147 146 147 136 139 139 142 157 166 174 82 6 255 123 100
235 236 212 209 213 204 172 177 178 188 222 215 208 210 175 168 170 171 176 183 180 180 176 167 181 177 172 188 171 167 180 175 178 179 176 177 174 173 173 173 176 174 173 174 174 173 172 172 171 173 173 171 171 171 171 170 168 169 165 167 165 156 163 162 155 161 160 155 159 162 164 166 169 171 171 169 168 164 160 163 160 155 152 149 146 141 154 153 153 164 146 128 65 294 230 152 97
223 224 227 215 218 226 190 139 176 179 232 224 180 225 188 165 174 167 173 190 176 167 168 160 161 146 119 206 187 173 177 178 181 182 180 178 176 176 173 174 177 175 176 176 177 177 175 175 173 173 175 173 173 172 172 170 166 168 163 159 155 150 161 163 163 169 167 164 165 167 168 169 173 172 172 173 168 163 163 165 159 154 155 156 152 146 158 152 142 148 122 124 225 315 255 88 77
217 222 236 235 234 231 149 125 217 191 214 207 193 233 207 175 185 167 165 183 175 166 166 158 153 155 177 213 198 184 179 181 187 187 186 180 179 178 173 176 179 177 178 178 178 178 175 175 173 173 175 175 174 172 173 170 167 172 168 166 167 164 170 174 175 175 172 174 171 166 166 169 173 172 172 174 169 165 168 165 161 160 157 163 171 149 152 161 144 139 127 122 87 63 19 8 62
224 210 227 241 266 254 187 176 229 237 213 183 194 236 226 188 176 138 149 166 172 175 165 155 155 164 184 201 197 192 185 185 198 193 187 183 182 180 176 179 182 179 178 178 179 179 175 174 173 174 175 176 175 172 174 172 170 175 175 176 177 175 179 180 180 178 172 176 169 159 163 167 173 176 171 173 173 166 165 165 167 170 167 169 178 177 191 181 133 120 116 91 76 89 51 332 355
237 203 206 213 259 271 214 193 223 243 232 148 181 231 240 194 129 104 141 152 162 181 162 154 160 168 184 194 192 190 184 214 218 193 185 189 187 184 180 181 184 181 177 179 179 177 175 174 174 175 175 176 176 174 175 175 174 178 181 183 182 182 186 180 180 181 173 177 169 159 165 165 171 180 174 173 177 171 168 170 172 178 183 174 172 188 207 164 104 106 111 104 91 99 97 338 344
244 185 209 200 208 238 223 221 236 242 245 190 183 213 228 193 140 144 171 156 166 186 168 163 167 170 180 196 196 176 155 225 225 193 188 194 189 187 185 183 185 183 179 180 180 177 175 174 174 175 175 176 176 175 177 179 178 179 184 186 186 186 187 181 181 184 176 177 174 166 169 165 169 180 177 175 179 178 174 174 178 185 189 181 182 192 181 140 120 127 135 128 121 112 110 49 13
183 76 256 222 212 230 227 234 239 237 245 230 194 199 209 188 156 172 167 161 177 178 168 169 167 169 175 187 193 164 149 207 213 192 195 194 188 192 189 186 188 185 182 181 180 178 174 175 176 176 176 176 177 177 178 181 181 181 185 188 188 186 185 183 183 184 179 180 181 177 177 173 173 179 181 179 182 184 181 181 185 189 193 191 189 193 157 150 152 155 161 147 128 109 108 125 301
227 125 211 228 219 229 226 237 241 232 234 227 225 218 201 185 181 168 146 143 165 163 157 153 155 166 171 177 180 165 167 196 195 187 199 190 187 195 193 192 192 187 185 183 181 180 176 177 177 177 178 177 178 179 180 183 183 183 186 187 189 187 185 184 184 185 184 185 189 185 185 186 182 181 183 183 187 189 187 189 192 191 194 197 191 197 184 177 178 167 164 155 152 182 171 202 282
241 189 197 213 201 217 216 222 230 233 227 206 219 232 211 199 196 149 127 116 108 116 132 114 108 142 166 177 173 166 173 186 183 184 193 185 185 193 195 199 201 195 189 185 184 181 178 179 178 177 180 179 179 180 181 184 185 186 188 188 191 191 188 187 186 189 188 189 193 189 188 191 190 188 185 185 189 190 189 192 197 195 193 197 195 196 197 200 193 164 156 161 171 188 212 222 257
228 202 210 210 187 195 205 208 210 223 234 202 205 234 229 187 140 132 125 112 93 62 68 56 44 73 131 183 164 161 175 180 179 183 188 184 185 191 194 197 202 203 194 186 187 185 180 180 179 179 181 180 180 181 182 185 187 188 189 189 192 192 193 193 190 192 193 192 194 192 191 193 194 195 190 188 189 188 190 192 195 196 193 197 199 192 190 214 229 176 157 175 185 184 205 220 237
212 205 211 209 191 194 197 203 206 211 230 220 209 224 215 116 113 131 122 107 95 76 71 57 44 56 88 169 151 155 177 181 182 186 185 187 189 191 196 193 193 204 201 190 188 187 182 180 180 181 182 181 181 182 183 186 188 189 190 190 192 193 195 196 196 197 197 197 197 197 197 196 196 199 197 194 190 188 191 193 196 197 196 197 198 201 202 205 221 219 195 199 200 195 207 216 233
206 216 221 219 208 200 196 204 207 200 210 218 212 211 191 139 133 128 115 107 97 79 73 66 55 56 55 82 131 157 175 182 185 187 185 190 192 190 195 195 190 203 208 197 190 188 184 182 181 181 182 182 181 182 183 186 189 189 190 191 192 194 196 198 200 200 201 202 202 202 203 202 200 201 201 198 194 191 191 191 195 199 201 202 202 206 211 211 216 221 223 223 218 208 210 224 237
195 213 226 229 219 205 214 218 209 202 204 210 208 194 104 127 133 124 117 104 94 83 75 69 59 59 69 72 103 156 172 178 182 186 187 191 191 188 193 194 191 199 207 199 190 190 187 182 181 182 182 182 181 182 184 185 187 189 190 192 193 194 196 199 200 201 203 203 203 205 206 206 205 202 202 202 199 196 196 194 197 201 203 205 208 212 216 216 215 219 222 226 229 223 218 229 239
190 208 217 228 229 226 233 220 205 209 213 199 182 135 95 127 134 124 118 101 91 82 71 69 61 60 75 87 98 130 158 182 191 189 191 192 189 187 190 196 198 201 203 198 191 191 188 181 181 184 184 184 182 181 184 185 186 188 190 192 194 194 196 200 202 202 203 204 203 206 207 207 207 206 204 202 200 200 201 200 201 203 203 206 211 213 218 221 218 222 225 225 232 234 228 230 237
224 208 212 221 225 244 272 240 205 207 214 198 181 171 161 167 157 129 125 105 88 74 63 65 64 60 68 83 90 97 125 175 197 190 194 203 194 185 184 202 225 215 201 198 195 192 189 181 181 187 189 189 186 183 184 185 185 187 190 192 194 196 198 201 203 203 203 204 204 204 206 207 207 209 209 206 202 202 204 204 205 205 204 206 211 213 216 221 223 228 231 231 234 237 239 237 237
257 275 267 238 214 217 252 258 227 206 208 204 187 182 185 188 170 143 131 105 89 77 60 59 60 58 60 67 77 80 86 111 170 178 178 189 171 152 165 201 244 239 206 198 196 189 187 183 183 191 195 194 191 188 186 185 186 189 190 192 194 197 200 202 203 203 203 205 206 205 206 207 207 208 209 208 207 205 204 206 207 208 208 207 209 212 214 216 222 229 233 235 233 232 238 244 242
243 271 265 242 225 215 214 235 245 209 207 212 192 183 180 165 148 134 120 100 93 82 66 59 55 57 55 48 55 60 67 82 61 88 148 163 157 158 169 186 225 242 220 197 195 188 185 191 191 192 196 197 196 196 191 185 187 191 190 191 193 196 199 201 202 203 204 206 207 207 207 207 208 208 207 207 210 209 207 208 209 210 212 212 211 212 212 213 219 224 231 235 234 229 232 240 244
216 227 221 213 222 228 215 220 235 219 213 213 195 181 144 107 115 121 114 106 100 86 79 72 59 59 60 51 48 44 48 65 48 45 111 172 174 175 179 177 196 227 225 193 192 192 192 208 210 196 193 198 198 198 194 188 188 190 190 191 192 194 197 200 201 202 205 207 207 208 210 209 208 208 208 208 208 210 210 210 211 212 213 215 213 213 212 211 215 220 225 232 235 234 234 237 243
228 219 215 211 211 219 220 218 225 232 233 228 206 171 121 93 106 116 111 107 100 95 92 84 68 63 63 60 58 48 44 56 53 45 53 96 149 168 179 173 179 202 206 185 184 191 196 212 222 206 197 201 200 199 195 189 188 189 190 192 193 194 196 198 201 203 204 207 207 208 209 209 209 208 209 210 208 210 212 212 212 213 215 218 214 213 213 212 213 216 220 227 229 230 234 237 242
Height
776 777 777 777 775 776 774 777 793 787 782 801 799 789 785 777 775 779 786 782 777 768 756 758 758 760 767 771 772 773 773 779 784 790 807 805 797 803 804 807 809 810 813 815 817 819 820 822 823 823 825 825 826 827 828 829 830 831 831 832 832 833 833 834 834 835 836 836 837 835 832 832 834 836 837 836 834 834 835 837 836 837 837 836 836 838 839 839 839 839 839 839 839 840 841 841 841
777 778 776 778 774 778 776 774 798 796 792 805 792 784 781 772 776 783 785 781 776 765 754 757 760 762 763 761 762 771 778 775 775 781 790 794 798 802 804 808 808 811 813 815 818 819 821 822 823 824 826 827 827 828 829 830 831 832 833 833 834 834 834 834 835 836 837 838 837 835 833 834 837 838 838 837 836 835 836 837 837 838 837 836 837 839 839 839 840 840 840 840 840 842 843 843 843
776 777 775 778 773 776 781 782 797 797 798 808 796 785 781 780 783 782 780 775 766 757 757 760 765 769 767 769 769 778 787 778 774 779 786 793 797 800 805 807 808 812 813 816 819 820 822 823 824 826 827 828 828 829 830 832 833 834 834 834 835 835 835 836 837 838 839 839 837 834 834 836 839 840 839 839 837 837 837 838 839 839 837 836 837 839 839 840 841 841 842 841 841 843 844 844 844
774 776 774 775 777 781 788 792 795 795 798 799 799 790 783 785 781 779 774 766 759 757 763 765 772 771 769 779 776 780 788 782 779 781 787 793 796 801 804 806 809 812 814 817 819 821 823 824 826 827 828 829 830 831 832 833 834 835 835 836 836 836 836 837 838 839 841 840 837 834 835 838 840 841 841 840 839 839 839 839 840 840 837 836 838 841 841 841 842 843 843 843 843 843 845 846 846
775 776 773 774 784 787 788 793 794 800 800 790 794 793 785 781 776 777 769 762 759 761 766 768 776 770 766 774 772 783 788 782 782 781 787 793 797 801 803 807 810 812 815 817 820 822 823 825 827 828 830 830 831 832 834 835 835 836 836 837 837 837 838 838 839 840 841 841 837 836 837 840 841 842 842 842 841 840 840 840 841 841 839 838 840 842 842 843 843 844 844 844 844 845 846 847 847
774 774 772 774 780 780 786 795 799 804 797 786 791 790 782 777 774 773 768 764 761 762 766 768 773 772 775 773 770 779 781 782 783 783 787 793 798 801 804 807 810 812 815 818 821 823 824 826 828 829 831 831 833 834 835 836 836 837 838 838 838 838 839 839 840 841 842 841 838 838 840 842 842 843 843 843 843 842 842 842 842 842 841 841 842 843 844 844 844 845 845 845 846 846 847 848 848
772 774 774 778 780 778 787 794 800 801 790 783 786 784 779 776 772 771 771 770 768 766 768 769 766 774 784 778 776 777 775 781 781 785 790 793 799 802 805 807 810 813 815 819 822 823 826 827 828 831 831 833 834 835 836 837 838 838 839 839 839 840 840 841 841 842 842 842 840 841 842 844 844 843 844 844 844 844 844 844 843 843 844 843 844 845 845 846 845 846 846 846 847 848 848 849 849
771 777 777 785 791 787 790 794 794 787 784 781 778 780 778 775 772 772 773 773 774 771 772 771 765 779 786 777 784 782 777 783 783 788 792 794 800 802 806 808 811 814 817 820 822 825 826 828 830 831 832 834 835 836 837 838 839 840 841 840 841 841 841 842 843 843 843 843 841 842 844 845 845 844 845 845 845 845 846 845 845 845 845 845 845 846 846 847 847 848 848 848 849 849 850 850 851
769 776 777 787 798 795 792 795 791 782 781 778 776 779 776 776 775 772 773 773 773 774 775 770 769 786 788 781 789 783 780 787 787 791 793 797 800 803 806 808 813 815 818 821 823 826 827 829 831 832 834 834 836 837 838 839 841 841 842 842 842 842 843 843 844 844 843 843 843 843 845 845 845 845 846 846 846 847 847 847 847 847 846 847 846 847 848 848 849 849 849 849 850 851 851 851 852
772 776 779 787 795 802 797 791 791 787 782 776 777 781 777 778 777 774 777 777 773 778 778 768 772 785 786 789 791 784 785 788 789 793 795 799 801 804 807 810 815 816 819 821 824 826 828 830 831 833 834 835 837 838 839 840 842 843 843 843 843 843 844 845 844 845 844 844 844 844 845 846 846 846 847 847 848 848 848 849 848 848 848 848 848 848 849 849 850 850 850 851 852 852 852 853 853
778 776 780 791 794 803 799 786 788 787 781 778 778 779 779 778 779 780 781 780 772 775 775 770 779 783 785 792 791 786 787 789 790 794 796 800 803 805 808 811 816 817 820 821 824 827 828 831 832 834 834 836 837 838 840 841 843 843 844 844 845 845 845 846 846 846 846 846 845 846 846 847 847 848 848 849 849 850 850 850 850 850 849 849 849 849 850 851 851 852 852 852 853 854 854 854 855
783 780 786 799 793 795 790 782 788 786 782 784 784 780 780 779 782 784 783 781 772 774 774 773 780 779 789 797 791 787 787 791 792 794 798 801 804 806 809 812 816 819 821 822 825 827 829 832 833 835 835 837 838 839 841 842 844 844 844 845 845 847 847 847 847 847 847 846 846 847 848 848 849 849 850 850 850 851 851 851 851 851 850 850 850 850 851 852 853 853 854 854 855 855 855 855 856
782 785 793 800 790 788 781 780 786 787 787 786 786 780 779 781 783 782 781 779 772 779 779 770 771 774 790 796 790 788 788 792 793 796 799 801 805 807 810 813 817 819 821 823 825 828 830 832 834 835 836 838 839 840 841 842 844 845 845 845 846 847 848 849 849 849 848 848 848 848 849 850 850 851 851 851 852 852 852 853 853 852 852 851 851 852 852 853 854 854 855 855 856 856 856 856 857
776 782 790 792 789 785 780 786 786 787 792 785 783 779 780 781 778 778 777 781 780 781 776 764 766 778 790 794 795 791 789 792 795 798 800 803 806 808 811 813 817 820 822 824 826 829 831 833 835 836 837 838 839 840 842 843 844 846 846 846 847 848 850 851 851 851 850 850 850 849 850 851 852 852 852 853 853 853 854 854 854 854 853 853 853 853 854 854 855 856 856 857 857 857 857 858 858
769 774 779 786 793 789 783 790 784 785 792 785 782 780 782 780 775 780 777 784 785 772 768 766 767 782 789 792 797 791 788 793 795 798 800 804 807 809 812 814 818 821 823 825 827 829 831 833 835 837 838 839 840 842 843 843 845 846 846 847 847 849 851 852 853 852 852 851 851 851 852 852 853 853 854 854 855 855 855 855 855 854 854 854 854 855 855 856 856 857 857 858 858 858 859 859 859
760 766 775 789 798 796 790 786 782 786 789 784 782 781 788 786 777 783 778 776 777 768 772 776 772 777 780 783 788 785 788 793 795 799 801 805 808 811 813 815 819 821 824 826 828 830 831 834 835 837 838 840 841 843 844 843 846 847 847 847 847 849 851 853 854 854 853 853 852 853 853 854 854 855 855 856 856 857 856 856 856 855 855 855 856 856 857 857 858 858 859 859 859 859 859 859 860
757 769 784 794 790 792 795 784 782 786 786 784 783 784 792 790 782 778 773 769 772 776 779 779 772 770 771 776 781 783 789 793 796 799 801 805 809 812 814 816 819 822 825 827 828 831 832 834 836 837 838 840 841 844 845 844 847 848 848 849 849 850 851 854 854 855 854 854 854 854 855 856 856 856 856 857 857 858 858 858 857 856 856 857 857 858 858 859 859 860 860 860 860 860 861 861 861
764 781 794 797 783 785 793 783 777 779 784 786 783 785 788 790 786 775 774 777 774 779 780 774 770 766 769 775 780 786 790 793 796 799 802 805 807 810 814 816 819 821 824 826 829 831 832 834 835 837 838 840 842 845 847 847 849 848 849 850 850 851 851 853 855 856 855 854 855 855 856 857 857 858 857 858 858 858 859 859 859 858 858 858 858 859 860 860 861 861 861 861 861 861 861 862 863
771 786 797 793 776 772 778 778 775 775 779 782 781 783 785 787 784 776 784 789 779 782 783 776 775 773 773 777 782 787 790 794 796 799 802 804 806 809 812 816 819 821 823 826 828 830 832 834 835 836 838 840 842 845 847 849 851 849 849 850 851 852 852 853 854 855 855 855 855 855 856 857 857 858 858 858 859 860 860 861 861 860 860 860 860 860 861 862 862 863 862 862 862 861 862 863 863
771 781 792 782 766 761 762 770 773 772 774 779 783 782 783 785 781 780 789 790 783 785 785 781 783 781 779 780 783 787 790 794 796 799 802 804 806 809 812 815 818 820 823 825 827 830 831 833 835 836 837 839 842 845 846 849 850 850 849 848 849 851 852 853 854 855 855 855 855 856 856 857 858 858 859 859 860 861 861 862 862 862 862 861 861 861 862 862 863 863 863 863 862 863 864 864 864
774 776 784 770 759 761 757 760 770 772 772 778 783 783 785 785 782 784 788 793 790 786 781 780 782 781 781 782 783 787 790 793 796 799 801 804 806 808 812 815 818 821 822 825 827 829 831 833 834 836 838 839 842 844 845 847 848 850 851 850 850 850 852 853 853 854 855 856 856 857 857 857 858 859 859 860 861 862 862 863 863 863 863 863 863 863 863 863 863 863 863 862 863 864 864 864 865
772 772 770 759 755 762 756 750 763 771 772 776 780 784 784 782 785 786 787 795 792 782 777 774 775 777 779 781 783 786 789 793 796 798 801 803 806 808 811 814 817 820 822 825 827 829 831 833 834 835 838 839 841 842 843 845 847 849 850 851 851 851 851 851 853 854 854 855 857 858 858 858 859 859 860 861 862 862 863 864 864 864 864 863 864 864 864 864 864 864 863 863 863 864 864 865 865
773 774 758 752 752 756 754 745 755 765 769 775 777 781 779 780 790 787 785 789 782 775 773 770 772 774 777 780 782 786 790 793 794 797 801 803 806 807 810 813 816 819 822 825 827 829 831 832 834 836 837 839 840 841 842 844 845 846 848 849 850 850 851 852 854 856 856 856 858 859 859 859 859 860 860 861 861 862 863 864 865 865 864 864 863 864 864 865 865 864 863 864 865 865 865 866 866
771 777 756 751 749 750 751 745 749 757 766 770 771 778 780 784 791 788 785 782 776 773 770 767 770 772 777 781 782 786 790 793 795 798 801 803 805 807 809 812 816 819 822 825 826 828 831 832 834 835 837 839 840 841 842 843 844 845 846 847 848 849 849 850 854 859 860 859 858 858 859 859 859 859 860 861 861 862 863 863 865 865 865 865 865 865 866 866 865 864 865 866 866 866 866 867 867
763 767 755 750 748 746 746 744 747 753 765 767 766 776 781 782 783 785 784 778 774 771 767 766 769 773 777 782 783 786 790 792 795 797 800 802 804 807 810 813 816 820 822 824 826 828 831 832 834 836 837 839 840 841 842 844 845 846 846 847 847 848 849 849 853 857 860 861 860 858 859 860 860 860 861 861 861 862 863 863 865 865 865 866 866 866 866 866 866 866 866 866 867 867 867 867 867
760 756 752 751 749 744 744 747 747 752 762 765 769 779 781 776 779 788 783 773 770 768 767 768 771 776 779 782 783 786 789 791 794 796 798 802 804 807 809 813 816 819 822 823 826 828 830 832 834 836 837 839 840 841 843 844 845 846 847 848 848 849 850 851 853 855 857 859 860 859 859 860 860 861 861 862 862 862 863 863 864 864 864 865 865 865 865 866 866 867 867 867 867 867 867 867 868
755 751 751 751 749 745 745 748 747 751 757 758 769 782 778 772 781 794 783 767 766 767 771 771 773 778 779 781 783 785 788 790 793 795 798 801 804 807 809 812 815 818 821 823 825 828 830 832 834 836 837 839 840 841 843 844 845 847 848 849 850 850 852 853 853 855 856 858 859 859 859 859 860 861 861 862 863 863 863 863 864 864 864 865 865 865 866 866 866 867 867 868 868 868 868 868 868
751 752 754 750 747 747 745 748 748 751 757 752 759 773 773 772 782 789 780 767 765 770 775 774 776 779 779 780 782 785 787 789 793 795 798 801 803 807 809 812 814 817 820 822 826 828 830 831 834 836 837 839 841 842 843 844 846 847 848 849 850 851 852 853 854 855 856 858 859 860 860 860 860 861 862 862 863 863 864 864 865 865 865 865 866 866 866 867 867 868 868 868 868 869 869 869 869
752 753 759 753 747 751 748 748 748 750 758 750 752 773 779 781 785 782 774 765 766 773 777 777 778 778 779 781 783 786 787 789 793 795 798 801 804 807 809 812 814 817 819 822 826 828 830 831 834 836 838 839 841 842 843 844 846 847 848 849 851 852 852 853 854 856 857 858 859 860 861 861 861 862 862 863 863 864 864 865 866 866 866 866 867 867 867 867 868 868 868 869 869 869 869 869 869
756 753 758 758 756 759 749 746 750 752 759 750 760 795 798 786 783 777 770 766 771 778 780 781 781 779 779 781 784 786 787 789 792 795 798 800 804 806 809 812 813 816 819 822 825 827 829 831 834 836 838 840 841 842 843 844 846 847 848 850 851 852 853 854 855 856 857 858 860 860 861 862 863 863 863 864 864 865 865 865 866 866 867 868 868 868 868 868 869 869 869 869 869 869 869 869 869
759 757 759 761 766 768 751 744 755 765 763 751 768 802 803 790 784 777 770 771 778 780 779 781 780 780 781 781 784 786 786 790 791 794 797 800 804 805 808 811 813 816 818 821 825 827 829 831 834 836 837 840 841 842 844 845 846 847 849 850 851 852 853 854 855 856 857 859 860 861 862 863 863 864 864 865 865 865 865 866 867 867 868 868 868 868 868 869 869 869 869 869 869 869 870 870 870
759 768 773 765 765 770 757 744 756 774 768 756 771 792 796 792 786 777 769 771 780 783 780 780 780 780 782 782 783 786 787 788 791 793 796 799 803 804 808 811 813 816 818 821 824 827 830 832 834 835 837 840 841 843 844 845 847 847 849 850 851 853 853 854 855 857 858 859 860 861 863 863 864 865 866 866 866 866 866 867 867 868 869 869 869 869 869 869 870 870 870 870 870 870 871 871 871
758 769 780 770 765 771 763 750 754 768 769 768 778 788 793 791 785 778 770 770 779 786 785 781 781 781 781 782 782 784 787 789 790 792 795 799 802 804 807 810 813 816 818 821 824 827 829 832 834 835 837 839 841 843 844 846 847 848 849 850 852 853 854 855 856 857 858 859 861 862 863 864 865 866 866 866 867 867 867 868 868 869 870 870 870 870 869 870 870 870 870 871 871 871 871 871 871
762 765 772 767 765 768 767 761 756 762 771 774 778 786 792 790 788 782 775 777 781 784 787 784 781 781 781 781 782 783 786 789 790 791 794 798 801 804 806 810 813 816 819 821 824 827 829 832 834 835 837 839 841 843 845 846 847 849 850 851 852 853 854 855 856 857 858 860 861 862 863 864 865 866 867 867 867 868 868 869 870 870 871 871 871 871 871 871 871 871 872 872 872 872 871 871 872
762 766 770 768 763 761 765 766 757 760 774 778 781 789 793 791 791 789 782 784 785 781 784 784 782 783 783 782 782 783 785 787 788 790 793 797 800 803 806 810 813 815 818 821 824 827 828 831 833 835 837 839 841 843 845 847 847 849 850 851 853 854 855 855 856 857 858 860 861 862 864 864 866 866 867 868 868 869 869 870 871 871 871 872 872 871 871 871 872 872 872 873 873 873 872 872 872
752 754 761 768 761 751 753 757 750 753 772 785 789 791 793 795 794 791 788 787 783 779 780 784 785 784 783 784 782 781 785 786 786 789 792 796 799 802 806 809 812 815 818 821 824 826 829 831 833 836 837 839 841 843 845 846 848 849 850 851 853 854 855 855 856 857 858 860 861 862 864 865 866 866 867 868 868 869 870 870 871 871 871 872 871 871 871 872 872 873 873 873 873 873 873 872 872
747 747 752 761 756 747 746 752 749 745 763 782 787 791 795 796 791 787 788 786 780 778 782 784 788 788 785 786 785 782 784 783 784 788 791 794 798 801 805 809 811 815 818 820 824 826 828 831 833 835 837 839 841 842 844 846 847 849 850 850 852 853 855 856 856 857 858 859 861 863 864 865 866 867 868 868 869 869 870 870 871 871 872 872 872 871 872 872 873 874 874 874 873 873 873 872 872
753 750 752 758 754 747 744 750 750 746 764 777 774 789 800 791 789 789 786 784 781 781 785 780 779 786 789 787 784 782 782 781 783 787 790 793 797 800 804 808 811 813 817 820 823 825 828 830 833 835 837 839 840 842 844 845 847 848 849 850 851 852 854 855 856 857 858 859 861 863 864 865 866 867 868 868 869 869 870 870 871 871 872 872 872 872 873 873 873 874 874 874 873 873 873 872 872
759 753 756 761 752 749 750 749 747 746 762 772 764 778 792 782 780 785 780 778 778 777 778 775 773 780 786 783 780 782 784 784 784 786 788 791 794 799 803 806 810 812 816 819 822 824 827 830 832 834 836 838 840 842 843 845 846 847 849 850 850 852 853 855 856 857 858 859 861 862 864 865 865 866 867 868 869 869 870 871 871 871 872 872 872 873 873 873 874 874 874 874 874 874 874 873 873
760 758 761 762 751 752 758 752 748 748 751 759 761 767 776 780 778 773 770 770 768 768 770 772 774 777 779 776 776 782 786 787 788 786 786 789 792 797 801 804 808 811 814 817 820 823 826 828 831 833 835 837 839 841 843 844 846 847 849 850 851 852 853 854 856 857 858 859 860 862 863 864 865 866 867 868 869 869 870 870 871 872 872 872 873 873 873 874 874 874 874 874 874 875 874 872 873
762 760 759 757 749 745 750 751 747 750 750 748 760 772 770 771 778 772 766 763 762 766 769 773 777 777 779 777 776 780 783 785 788 786 785 787 791 795 799 803 806 809 812 815 818 821 824 827 829 832 834 836 838 840 842 844 845 847 848 850 851 852 853 854 856 857 858 859 860 861 863 864 865 866 867 868 869 869 870 870 871 872 872 873 873 873 873 873 874 874 874 874 874 874 873 872 873
764 759 750 747 746 741 748 757 754 763 769 752 758 788 782 759 761 766 764 763 764 765 768 775 780 780 783 783 780 781 783 784 786 786 785 785 789 793 797 801 804 806 810 813 816 819 822 825 828 831 833 835 837 839 841 843 845 847 848 849 851 852 853 854 855 856 857 858 859 860 862 863 864 866 866 868 868 869 870 870 871 872 872 873 873 873 873 873 873 874 874 874 874 874 874 873 873
768 755 744 744 746 745 747 757 764 772 770 749 749 782 788 762 755 759 758 765 767 766 769 776 781 783 784 785 784 784 785 787 788 786 784 785 789 792 795 799 801 804 808 811 814 817 820 823 826 829 832 834 836 838 840 842 844 846 847 849 850 852 853 854 855 856 857 858 858 859 861 863 864 865 866 867 868 869 869 870 871 872 872 873 873 873 873 873 873 874 874 874 874 875 875 874 873
764 743 740 749 754 756 751 756 768 763 753 750 749 763 779 776 769 764 761 771 777 771 772 779 782 784 784 783 784 786 787 790 791 787 785 786 788 790 794 798 800 802 805 809 812 815 818 821 825 827 830 832 834 836 839 841 843 845 846 848 850 851 852 853 855 856 857 858 858 860 861 862 864 865 866 867 868 869 869 870 871 872 872 873 873 873 873 873 873 874 875 875 875 875 875 875 874
756 737 739 747 754 758 754 759 766 756 756 766 757 756 777 785 776 769 768 778 787 779 773 777 780 782 784 784 784 786 790 793 791 788 786 786 787 791 793 796 798 800 803 807 810 813 817 820 823 825 828 830 832 835 837 839 841 843 845 847 849 851 852 853 855 856 857 858 859 860 861 862 863 865 866 866 867 868 869 870 870 871 872 872 873 873 873 873 874 875 875 875 876 876 876 876 875
748 743 748 748 754 757 758 765 763 762 772 773 758 755 778 794 781 773 780 786 788 781 772 771 771 775 784 787 785 787 792 795 790 787 786 785 787 791 793 795 797 799 801 805 808 811 815 818 821 824 826 829 831 833 835 838 840 842 844 846 848 850 851 853 855 856 857 858 859 860 861 862 863 864 865 866 867 868 869 870 870 871 872 872 873 873 873 874 874 875 875 875 876 876 876 876 876
744 750 761 762 764 761 762 765 761 776 786 771 759 751 768 803 795 775 783 785 778 776 772 769 767 769 776 780 782 788 794 793 787 786 786 785 787 790 792 795 795 797 800 803 806 809 813 816 819 822 824 827 829 831 834 836 838 841 843 845 847 849 851 852 854 855 856 858 859 860 861 862 862 863 865 866 867 868 868 869 870 871 871 872 873 873 874 874 874 874 875 875 876 876 876 876 876
749 758 769 775 777 774 777 776 773 793 793 766 760 752 756 793 795 774 776 774 769 772 772 772 771 769 769 769 773 781 787 786 782 784 784 782 786 788 791 794 794 796 798 801 804 807 811 815 817 820 823 825 827 829 832 834 837 839 841 843 846 847 850 851 853 854 856 857 858 859 860 861 862 863 864 865 866 867 868 869 870 870 871 872 872 873 874 873 873 874 875 875 876 876 876 876 877
758 765 773 783 791 795 800 796 790 798 785 756 756 758 757 775 780 774 775 770 769 770 768 770 771 769 769 766 768 774 777 779 779 780 782 781 784 786 789 793 795 796 796 798 802 804 808 812 815 818 821 823 826 827 830 833 835 837 839 842 844 846 848 850 852 853 854 856 857 858 859 860 862 862 863 864 865 866 867 868 869 870 871 872 872 873 873 874 874 874 874 875 875 876 876 876 876
767 768 774 782 791 805 813 804 796 796 780 756 752 759 768 781 780 773 772 770 767 766 766 768 767 767 766 761 764 774 776 776 777 778 780 781 782 784 787 790 792 795 795 796 799 802 805 809 813 816 819 821 824 826 828 831 833 835 838 840 842 845 847 848 850 852 853 855 856 857 858 859 860 861 862 863 864 865 867 868 869 870 870 871 872 872 873 874 874 874 875 875 875 875 876 876 876
765 759 761 770 773 789 803 796 793 793 781 766 757 759 772 786 784 770 766 766 763 763 764 764 765 764 762 760 764 775 778 776 777 777 777 778 779 782 786 788 791 795 797 795 796 800 803 806 810 813 816 819 821 824 826 828 831 834 836 838 841 843 845 847 849 850 852 853 855 856 857 858 859 861 861 863 864 865 866 867 868 869 870 870 871 872 873 874 874 874 875 875 875 875 875 875 875
759 751 759 766 755 761 776 773 769 774 777 771 761 762 767 771 773 764 764 766 763 765 765 765 768 764 764 770 770 772 775 774 775 775 775 776 778 783 786 788 792 795 796 794 794 798 801 804 808 811 814 817 819 821 824 826 829 831 834 836 839 841 843 845 847 849 850 852 853 855 856 857 858 859 861 862 863 864 865 866 867 868 869 870 870 871 872 873 874 874 874 875 874 875 875 875 875
758 758 764 756 738 743 763 765 755 761 779 771 758 773 780 778 779 768 765 772 769 769 769 769 772 768 768 775 774 773 774 773 773 774 775 776 778 783 786 788 790 792 792 792 794 797 800 803 807 810 813 815 817 819 821 824 826 829 831 834 836 839 841 843 845 846 848 850 852 853 854 856 857 858 860 861 862 863 864 865 866 867 868 869 870 870 871 872 873 873 873 874 874 874 874 874 874
759 764 757 743 737 744 758 770 767 769 782 767 754 776 788 791 797 782 772 779 777 774 774 773 774 772 773 776 776 776 775 774 774 773 775 777 779 784 786 787 790 791 791 793 795 797 800 804 808 811 813 814 816 817 819 821 824 826 829 831 833 836 838 840 842 844 847 848 850 851 853 854 856 857 858 859 861 862 863 864 865 866 867 868 869 869 870 871 872 873 873 873 873 874 874 874 874
751 755 746 744 760 768 770 778 777 774 780 769 757 769 778 783 791 786 781 784 782 780 779 778 778 777 776 776 775 777 776 776 776 775 779 783 784 788 790 789 792 794 794 794 795 797 799 803 806 809 812 814 816 816 816 819 821 823 825 828 830 833 835 838 840 842 844 846 847 849 850 852 854 855 857 858 860 861 862 863 864 865 866 867 868 868 870 870 871 872 872 872 873 873 873 873 873
749 752 747 744 755 765 767 768 766 767 776 773 762 766 775 776 777 782 786 784 781 783 783 783 782 780 779 779 777 777 777 777 778 778 782 784 785 790 793 792 795 797 796 793 794 796 798 801 803 805 809 811 813 814 814 815 817 820 822 824 827 830 832 835 837 839 841 843 845 847 848 850 851 853 855 856 858 859 860 861 862 864 864 865 867 867 868 869 870 870 871 871 871 872 872 872 873
757 762 760 754 753 754 756 756 752 755 768 769 765 778 786 776 771 779 784 782 780 781 783 784 783 782 783 783 783 781 779 779 780 779 780 779 781 787 791 791 795 799 796 793 794 795 797 801 802 803 806 808 808 809 811 812 813 816 819 821 824 827 830 832 834 837 839 840 842 844 846 848 849 851 852 854 856 857 858 859 860 862 863 864 865 866 867 867 868 869 869 870 870 870 871 871 872
759 760 757 756 757 759 768 771 755 745 754 753 757 790 803 780 769 775 778 780 780 778 780 783 783 784 785 786 787 787 784 783 782 780 779 777 777 782 786 788 794 798 795 793 795 796 800 803 804 804 805 805 805 805 806 808 810 813 815 818 821 824 826 829 831 834 835 837 840 841 843 845 846 848 850 851 853 854 856 857 858 860 861 862 863 864 865 865 866 867 867 868 869 869 870 870 871